Wind_Speed
23 25 24 21 20 21 20 19 20 21 19 17 16 15 13 12 11 10 8 9 9 7 7 7 7 4 2 4 6 6 7 9 8 7 5 3 2 2 3 5 6 7 7 7 8 9 10 11 11 10 9 9 8 8 9 9 9 9 10 11 13 15 17 19 21 23 23 22 22 24 25 26 25 24 24 24 24 25 26 27 27 28 29 29 30 30 30
23 23 23 21 20 20 20 19 20 20 19 17 14 13 11 10 11 9 7 8 8 6 4 4 3 4 6 8 9 8 8 10 9 6 4 2 2 2 4 6 6 6 6 7 8 9 11 12 12 11 10 9 8 8 9 9 10 10 10 10 11 13 15 17 19 22 24 24 23 24 24 25 26 27 27 26 25 26 27 28 27 27 28 29 30 30 30
20 21 22 21 21 20 19 19 19 19 19 16 14 14 12 12 12 11 11 12 11 8 7 6 7 9 11 10 10 9 9 9 9 7 4 2 2 3 5 6 6 6 6 7 9 10 12 12 12 12 10 9 9 9 9 10 10 11 11 11 11 12 13 15 17 19 22 24 25 25 24 24 26 27 29 29 28 27 28 29 28 28 28 29 29 30 30
17 19 20 20 21 20 18 18 19 19 19 18 17 16 15 14 13 13 15 16 12 9 10 11 12 14 13 11 10 10 10 9 9 6 4 2 3 4 5 6 6 6 6 8 10 11 12 13 13 12 11 11 10 10 11 11 11 11 11 12 12 12 12 13 15 17 20 22 24 25 26 26 26 27 28 29 29 29 30 30 30 30 30 29 30 30 31
14 17 18 19 19 16 15 18 20 20 19 18 16 16 16 14 13 14 15 13 8 8 10 13 15 16 16 12 11 10 9 8 8 7 4 3 4 4 6 6 6 6 7 9 11 12 13 14 13 13 13 12 12 11 11 12 12 12 12 12 13 13 13 14 14 15 16 19 22 24 25 27 27 28 28 28 29 30 31 31 32 32 32 31 31 31 31
10 11 13 14 13 10 11 17 20 19 17 16 16 16 16 14 14 14 12 10 9 9 9 11 14 13 11 9 9 10 9 7 6 7 6 6 5 5 6 7 7 8 9 11 12 14 14 15 14 13 13 13 13 12 12 12 12 13 13 13 13 14 14 15 15 15 15 16 18 21 23 25 27 28 28 28 28 29 30 32 32 33 34 34 34 33 33
7 8 8 7 7 10 15 17 18 18 16 15 14 14 13 14 14 14 13 12 12 11 9 9 10 9 8 10 11 12 11 9 8 8 8 7 6 5 6 7 8 9 11 13 14 15 15 15 14 14 13 13 14 14 14 14 14 14 14 14 14 14 15 15 16 16 16 15 15 17 19 22 24 26 27 28 28 29 29 31 31 32 33 34 35 35 35
8 6 6 5 3 8 15 17 17 18 16 13 13 14 14 14 14 14 14 12 11 11 10 11 12 12 12 13 13 14 14 14 12 11 10 7 6 6 7 8 9 10 12 14 15 16 16 15 14 14 14 13 14 14 15 15 15 15 15 15 15 15 15 16 17 17 17 16 16 16 17 18 21 23 25 26 27 29 29 30 31 32 32 33 34 36 37
9 8 8 8 7 7 12 15 16 18 18 16 15 15 15 14 14 14 15 13 13 12 11 13 15 15 15 14 14 15 16 16 16 14 12 10 8 8 9 10 10 11 13 14 15 16 15 14 14 14 14 14 14 15 16 16 16 16 16 16 16 15 15 16 17 18 18 18 18 18 18 18 19 20 21 23 25 27 28 29 30 32 32 33 34 36 38
10 11 10 7 5 4 6 10 14 17 19 18 16 16 16 16 15 15 15 15 15 13 11 14 17 17 18 17 16 16 16 16 17 16 14 11 10 9 10 11 12 12 14 14 15 15 14 13 13 14 14 15 15 16 16 17 17 16 16 16 16 16 15 15 16 17 18 19 19 19 20 20 21 21 21 22 23 25 26 27 28 29 31 33 34 35 37
13 13 10 5 4 3 3 6 14 18 18 16 15 16 17 17 15 15 15 15 14 13 12 15 17 19 20 17 13 13 15 15 15 15 13 11 11 11 11 12 13 13 14 13 13 13 13 13 14 14 15 16 16 16 16 16 16 16 15 14 14 14 14 14 15 16 17 18 19 20 21 21 22 22 23 23 23 24 25 26 26 27 28 30 32 33 34
17 17 15 12 11 9 6 5 10 15 16 16 16 13 15 17 16 15 14 12 12 12 12 15 18 18 15 10 8 10 13 14 14 14 13 12 12 12 12 12 13 13 12 11 11 12 13 14 15 16 16 16 16 16 16 16 15 14 13 12 12 12 12 13 13 14 15 16 18 19 20 21 22 23 24 24 24 24 25 26 27 27 27 28 30 31 32
17 18 19 18 15 14 13 11 10 11 14 17 16 12 12 15 15 14 13 11 10 10 11 13 15 13 9 7 8 10 12 12 13 13 13 13 13 12 12 12 11 10 10 10 12 13 14 14 15 16 16 16 16 16 15 15 14 13 12 11 10 10 11 11 12 14 15 17 18 19 20 21 22 23 23 23 24 24 24 25 26 27 28 29 29 29 29
19 17 18 18 15 15 18 16 12 12 14 18 17 13 11 12 14 14 13 11 10 9 10 10 11 12 10 7 7 10 11 11 12 13 13 12 11 10 10 9 8 8 9 11 12 13 14 14 14 14 15 15 15 14 14 13 12 11 10 9 8 9 10 11 13 14 15 17 18 18 19 20 21 21 22 22 21 21 22 22 24 25 27 28 29 28 28
22 19 16 12 11 14 19 20 16 14 15 16 16 14 13 13 13 13 11 11 10 10 12 13 11 13 13 9 6 8 11 11 12 12 11 10 9 8 7 6 7 8 9 10 11 12 13 13 13 13 13 13 13 13 12 11 10 9 7 6 7 8 9 11 12 13 14 15 16 16 17 18 18 18 19 19 19 19 19 20 21 23 24 26 27 27 27
24 22 18 13 12 14 19 22 20 17 16 16 15 14 14 14 13 12 11 11 11 11 12 13 11 11 14 13 9 8 9 11 11 11 9 8 6 5 4 5 6 8 9 10 10 11 11 12 12 12 11 11 11 11 10 9 8 6 4 5 6 7 8 10 11 13 13 14 15 15 16 16 16 15 15 16 16 17 17 18 20 21 21 23 24 24 24
24 25 22 18 15 17 21 25 24 21 19 19 17 16 15 13 12 11 10 9 10 11 12 14 12 10 12 13 11 9 9 10 11 9 8 6 4 3 3 5 6 8 9 9 10 10 11 11 11 11 10 10 10 9 8 7 5 4 3 4 5 6 8 9 11 12 13 13 13 14 14 14 14 13 12 13 14 14 15 16 17 18 19 20 20 21 21
23 25 26 24 21 19 20 24 26 26 24 22 20 17 15 13 11 11 11 9 10 11 13 15 15 13 12 12 12 11 11 11 11 9 8 6 3 2 3 5 7 8 9 9 10 10 10 11 11 10 9 9 9 8 7 5 4 3 3 3 4 5 7 9 11 11 11 11 11 12 12 12 11 10 9 8 9 10 11 12 13 15 16 17 17 18 18
20 21 24 27 28 26 24 24 26 28 29 27 24 20 17 15 13 14 14 12 12 13 14 16 17 16 13 12 13 13 13 12 11 9 7 5 2 2 4 6 8 9 9 10 10 10 11 12 11 10 9 8 8 7 6 5 4 4 4 3 3 5 7 9 10 11 10 10 9 9 9 8 8 7 7 6 5 6 6 7 8 9 11 12 14 15 16
18 17 18 20 23 28 30 31 31 29 29 29 28 26 23 18 15 16 18 17 16 17 17 18 19 17 14 12 13 14 13 12 11 9 7 4 2 2 4 7 9 10 10 10 10 11 12 13 11 10 8 7 7 6 6 6 6 6 6 4 3 4 7 9 9 9 8 8 7 7 7 8 10 10 9 7 5 4 3 4 4 5 6 7 8 9 11
17 17 18 17 17 20 24 27 31 32 34 34 31 30 30 26 20 19 21 21 20 21 20 20 20 17 14 13 14 14 13 12 11 9 7 5 3 3 5 7 9 10 10 11 11 11 12 13 11 9 8 7 6 6 6 6 7 8 7 5 3 3 5 7 8 10 10 10 8 7 8 12 16 16 14 11 8 7 5 4 3 3 4 4 5 5 5
16 17 19 19 18 17 17 16 19 26 34 40 40 37 35 30 24 21 23 25 24 23 21 19 18 16 14 13 13 13 12 12 11 9 7 6 6 6 6 6 8 10 11 11 11 11 12 11 10 9 8 6 5 5 6 7 7 8 7 6 4 0 4 6 9 12 14 15 15 14 15 18 20 20 18 15 12 10 8 7 4 3 2 1 2 3 2
15 15 17 19 20 22 19 12 7 11 20 30 38 39 36 32 27 26 27 29 28 26 23 19 16 14 14 12 11 10 10 10 10 9 8 8 8 7 6 6 7 9 10 10 11 11 10 10 8 8 7 6 5 4 5 6 7 8 8 7 5 2 4 5 7 9 12 14 17 20 21 21 21 20 19 18 16 15 15 15 13 12 10 9 8 7 8
15 15 16 17 18 20 18 11 8 7 9 17 27 33 34 33 31 30 32 32 30 27 25 21 18 16 14 12 10 8 7 7 8 8 7 8 8 7 5 6 8 9 9 9 10 11 10 8 7 7 6 5 4 4 4 5 7 8 8 8 6 5 5 4 5 7 8 10 13 17 19 20 19 19 20 19 20 21 23 23 23 22 21 21 21 19 18
17 16 17 17 17 17 17 16 13 5 4 8 16 26 34 36 34 33 34 32 27 24 23 21 19 17 14 11 9 7 6 7 7 7 7 8 8 7 7 8 9 8 8 8 10 10 9 8 7 6 5 5 4 4 4 5 8 10 9 9 8 6 5 4 4 6 7 8 10 11 13 14 14 15 15 17 18 20 22 24 24 25 25 25 25 25 24
18 18 17 17 19 19 18 19 15 4 5 1 6 16 26 31 28 26 29 29 24 20 19 17 15 14 12 11 9 8 8 8 9 8 8 8 9 8 9 9 8 7 7 8 9 10 9 7 6 6 5 4 3 4 5 7 9 10 10 10 9 6 4 3 3 4 6 7 7 8 9 9 10 10 10 11 12 14 17 18 19 20 20 21 22 22 23
16 18 18 17 19 18 17 19 18 8 4 2 4 10 19 24 22 21 26 29 25 20 17 15 14 13 12 11 10 9 10 10 10 10 9 9 10 9 9 7 6 6 7 8 8 9 8 7 6 5 5 4 4 5 6 8 10 10 10 10 9 7 5 3 2 3 4 5 5 6 6 6 7 7 7 7 8 9 11 12 13 13 14 14 15 16 16
14 16 17 17 18 16 15 17 17 10 4 3 5 13 22 23 20 21 26 28 25 21 18 16 15 14 13 13 13 12 11 11 11 10 10 10 10 10 8 7 5 6 7 8 8 8 8 7 5 5 6 5 5 7 8 9 9 9 10 10 10 8 6 3 2 1 2 3 3 4 4 4 5 5 5 6 6 7 8 8 9 9 10 10 11 11 12
13 14 16 17 18 17 16 17 18 16 12 9 7 15 24 23 19 21 23 22 21 22 20 18 16 14 12 13 13 13 12 12 11 11 11 11 11 10 8 6 5 6 7 8 8 8 8 7 5 6 7 6 7 9 9 9 8 9 10 11 10 9 7 5 3 1 1 1 2 2 2 3 3 4 5 5 6 6 6 7 7 8 9 9 9 9 10
14 13 14 16 17 18 17 18 20 21 19 13 8 16 24 20 16 19 21 21 22 23 23 20 18 15 13 12 12 11 12 12 13 13 13 12 12 11 8 6 6 7 8 8 8 7 7 7 6 6 8 8 9 11 11 9 9 9 10 11 11 9 7 5 3 2 1 1 1 0 1 2 3 3 4 5 5 5 6 6 7 7 8 8 8 8 9
14 13 13 14 15 16 17 19 21 23 22 18 14 17 21 20 18 20 22 22 24 27 28 26 22 19 17 15 12 12 14 15 14 14 14 13 12 11 9 7 7 7 7 7 7 7 7 7 6 7 9 10 10 12 12 11 11 11 11 11 11 9 7 6 4 3 2 2 2 1 1 2 3 3 4 4 5 5 5 5 6 6 6 7 7 7 7
14 14 12 12 13 15 16 18 20 22 22 22 22 21 21 21 21 21 22 23 24 25 26 26 24 22 22 20 17 16 16 16 15 14 14 14 12 11 9 9 8 7 7 7 7 7 7 8 7 8 10 11 12 13 13 13 13 12 12 12 11 9 8 7 6 5 4 3 3 3 3 3 3 4 4 4 4 5 5 4 5 5 5 5 5 5 5
13 13 13 12 12 13 14 16 18 19 20 22 25 26 25 22 21 21 23 24 24 22 21 23 26 26 23 22 21 21 18 16 16 16 15 13 12 12 12 11 10 8 7 7 6 7 7 8 8 9 11 12 13 14 14 14 13 13 13 13 12 10 9 8 6 5 5 4 4 3 4 4 4 4 4 4 5 5 4 4 4 4 4 4 4 3 4
13 13 13 12 10 10 11 13 15 16 17 19 22 25 25 23 22 22 24 26 27 25 24 24 25 25 24 21 20 20 19 16 15 15 14 14 14 14 14 13 11 10 8 7 7 7 8 8 9 10 11 13 14 14 15 15 15 14 13 13 11 10 8 7 6 5 4 4 4 4 5 5 5 5 5 5 5 5 5 4 4 4 4 3 3 2 2
12 10 9 9 8 8 8 9 12 14 14 14 16 18 20 21 21 20 21 23 25 26 25 24 23 22 19 18 18 18 16 13 11 12 12 13 14 14 15 14 13 12 10 9 9 10 10 10 10 10 12 13 13 14 14 15 16 15 15 13 12 10 9 7 6 5 4 3 3 4 4 5 6 6 6 6 6 5 5 5 5 4 4 4 3 2 2
6 4 4 5 6 6 6 7 10 12 13 13 13 13 14 16 16 16 16 18 19 20 21 22 21 20 17 17 18 17 12 9 9 12 12 12 12 14 15 15 14 12 12 12 12 12 11 11 11 11 12 12 12 12 13 13 14 14 14 13 12 11 10 8 7 6 5 3 2 2 3 4 5 5 6 6 7 7 6 6 6 6 5 5 4 4 3
3 2 2 3 4 5 6 8 9 11 13 15 15 13 11 11 11 12 13 15 16 17 18 18 17 16 16 17 19 18 13 11 13 17 17 15 14 15 16 15 14 14 13 13 12 11 11 11 11 12 12 12 13 13 12 12 11 11 11 11 11 11 10 9 7 6 4 3 2 1 1 2 4 5 6 6 7 7 6 6 6 6 6 6 6 5 4
3 2 2 3 4 6 7 9 10 11 12 14 13 12 11 11 11 11 11 13 15 17 17 16 15 14 15 17 19 19 17 17 19 20 20 19 18 17 17 16 14 11 10 10 12 12 11 12 12 12 12 12 13 14 13 12 11 10 10 10 10 10 10 8 7 5 4 3 2 1 1 2 3 5 6 6 6 6 6 5 5 5 6 6 7 7 7
5 5 6 6 7 7 8 10 11 11 12 13 13 13 13 13 13 13 13 13 14 15 16 15 16 16 16 16 16 17 17 17 18 19 20 21 20 18 17 16 14 11 11 13 14 13 12 13 13 13 13 13 14 14 14 13 12 12 12 11 11 10 9 8 6 5 4 3 3 2 3 3 5 5 5 6 6 6 6 5 5 5 6 6 7 8 8
8 9 10 11 10 9 9 10 11 12 14 15 16 16 17 17 17 17 17 17 17 17 17 17 17 17 16 15 15 14 14 14 16 18 21 21 20 18 17 17 16 16 17 17 16 14 13 13 13 14 14 14 15 15 15 14 14 14 14 13 12 11 9 8 7 7 6 6 5 5 6 6 7 7 7 7 7 7 6 6 6 6 6 7 7 8 8
12 14 15 14 13 11 11 11 12 13 14 15 16 17 18 18 19 19 19 19 18 18 19 19 19 18 16 15 15 16 15 15 16 18 19 19 19 18 17 16 16 17 18 18 17 15 14 13 13 14 15 16 16 16 15 15 15 15 15 14 14 13 12 11 10 9 9 9 8 8 9 9 8 8 7 7 7 6 7 7 8 8 8 8 8 8 8
14 14 13 12 11 10 10 12 13 13 14 14 15 16 16 16 17 17 17 17 18 18 19 20 21 20 19 18 18 18 18 17 17 17 17 17 17 17 16 15 16 17 19 19 19 18 15 13 13 14 15 16 17 17 16 16 16 16 16 15 15 14 13 12 12 12 12 12 11 11 11 10 9 8 7 7 6 6 7 8 8 8 8 8 8 8 8
9 8 7 7 7 7 8 10 11 13 14 14 15 15 15 15 15 15 16 16 16 17 18 19 21 22 22 21 21 20 19 18 17 17 16 17 18 18 18 17 18 20 21 21 20 18 16 14 14 14 16 17 18 18 17 17 17 17 17 16 15 14 13 13 13 13 13 13 13 13 12 11 9 9 8 8 8 8 8 8 8 8 8 8 8 8 7
4 4 4 4 4 5 6 7 8 10 11 13 13 14 14 14 15 15 16 16 17 17 18 19 20 22 23 23 23 22 20 18 16 16 17 18 19 19 19 20 21 22 22 22 20 19 17 16 15 15 16 18 18 19 18 18 18 18 18 17 16 15 14 14 14 14 14 13 13 13 12 11 10 10 10 9 9 10 10 9 9 9 9 9 10 9 9
2 2 2 3 3 4 4 5 6 7 9 10 11 11 12 12 13 14 15 15 16 17 18 19 21 22 23 24 25 25 23 20 19 19 19 20 20 19 19 21 22 23 23 22 21 19 18 18 17 17 18 18 18 18 18 19 19 19 18 17 16 16 15 14 14 14 14 14 14 13 12 12 12 12 12 11 11 11 11 11 11 11 11 11 11 12 11
2 2 3 3 4 4 4 4 5 6 7 8 9 9 10 11 12 12 13 14 15 16 17 19 21 22 24 24 25 26 26 24 23 22 21 22 21 21 20 21 22 23 24 23 21 19 18 19 20 20 20 19 19 18 18 19 19 19 18 17 16 16 15 15 14 14 14 14 14 14 13 13 14 14 14 14 13 13 13 13 13 13 13 13 14 14 14
4 3 3 4 4 4 5 5 6 6 7 8 8 8 9 10 11 11 12 13 14 15 15 17 18 20 22 23 24 24 25 25 24 22 22 22 22 22 22 22 23 25 25 25 23 20 19 20 21 21 20 20 19 18 18 19 19 18 18 17 16 15 14 14 15 15 15 15 15 15 14 14 15 16 17 16 16 15 14 15 15 15 15 15 16 17 17
5 4 4 4 4 4 5 6 6 7 7 8 9 9 9 9 10 11 11 12 13 14 15 15 16 18 19 21 21 22 23 24 23 23 22 22 21 20 20 21 23 25 26 25 24 22 21 20 20 20 21 21 20 19 18 19 19 18 17 16 15 14 14 14 15 16 16 16 16 16 16 16 17 19 19 18 17 16 16 16 17 17 17 17 17 18 19
5 5 5 4 5 5 6 6 7 7 8 8 9 10 10 10 10 11 11 12 12 13 13 14 15 17 18 19 20 21 22 22 22 22 23 24 22 20 20 21 24 25 25 25 25 25 24 23 21 20 20 20 19 19 19 19 18 17 17 15 14 13 14 15 16 16 17 17 17 17 17 17 19 21 21 19 18 17 17 18 18 18 18 17 18 18 19
5 5 4 4 5 6 6 7 7 8 8 9 9 9 10 10 10 10 11 11 12 12 12 13 14 15 17 18 20 20 21 21 21 21 22 24 24 23 23 23 25 26 26 26 26 25 22 19 17 18 19 19 19 18 18 18 18 17 16 14 14 14 15 15 16 16 17 17 17 17 17 18 19 20 19 18 18 18 18 18 18 18 17 17 17 18 18
5 5 5 5 5 5 6 7 7 8 8 9 9 9 9 9 9 9 9 10 11 11 12 12 12 13 14 16 17 19 20 20 21 21 22 23 24 24 25 25 26 26 26 26 24 22 19 16 15 16 17 18 18 18 18 19 18 17 15 14 15 15 15 15 16 16 16 16 16 16 17 18 18 17 17 16 16 16 17 17 18 17 17 17 17 17 18
6 6 6 6 6 7 8 8 8 8 8 9 9 9 9 9 9 9 8 9 9 10 10 11 11 11 12 13 14 16 17 19 20 21 22 23 24 24 25 25 25 25 25 25 23 21 19 17 16 16 16 17 18 19 19 19 18 17 16 15 15 15 15 16 16 16 16 16 16 16 16 16 17 17 16 15 15 15 16 16 17 17 17 17 17 18 18
Wind_Direction
237 237 240 243 237 227 222 219 212 206 205 206 210 218 225 222 218 228 241 236 242 264 278 279 275 252 212 189 185 184 180 174 167 158 152 151 177 226 253 263 281 297 308 315 319 319 314 308 305 306 308 312 312 309 306 302 295 285 273 264 258 254 250 246 243 242 243 244 243 241 241 242 241 239 237 237 236 234 234 234 233 232 232 233 235 236 236
234 235 242 243 231 218 214 214 211 208 209 210 214 222 227 229 230 232 233 232 243 261 263 263 251 195 173 171 178 185 184 177 170 160 147 147 187 226 253 267 282 297 306 313 313 308 305 303 303 305 308 311 311 308 302 298 296 293 287 277 266 257 251 246 243 243 242 243 243 242 241 242 243 241 240 240 240 236 234 234 234 234 234 235 236 236 237
232 232 235 229 218 213 211 209 206 207 211 212 217 223 222 218 219 221 229 235 240 244 226 205 196 195 193 190 186 183 184 184 181 173 162 165 205 234 254 269 283 295 303 305 304 301 301 303 305 308 310 309 306 300 295 292 292 292 290 287 280 270 260 251 244 242 242 242 242 243 243 243 243 242 241 241 242 240 237 236 236 235 236 236 237 237 238
234 228 223 218 215 219 223 220 214 214 217 218 221 224 222 219 219 221 226 230 240 252 233 208 199 201 207 207 195 187 189 190 187 182 181 196 218 237 255 269 281 290 295 298 299 300 301 304 307 308 308 308 303 297 295 294 292 291 288 287 285 280 274 265 254 246 242 242 242 243 244 245 245 244 242 242 244 244 243 242 239 238 238 238 238 238 239
234 227 224 221 219 222 228 224 219 220 224 226 227 227 223 219 221 224 226 229 242 251 233 216 209 209 211 211 204 198 199 198 194 196 209 232 233 241 259 273 281 284 288 294 297 301 305 307 308 308 307 304 300 298 297 295 293 292 289 287 285 283 280 276 269 259 250 245 243 243 243 244 245 245 243 243 244 245 246 246 244 242 241 241 240 241 241
225 226 229 225 217 217 221 221 221 226 232 234 235 234 227 219 219 224 226 228 233 240 240 232 224 216 211 208 205 205 207 209 211 213 224 242 249 252 266 278 282 281 284 292 298 303 307 309 310 309 305 302 299 297 295 293 292 290 289 287 286 284 282 279 275 271 264 257 252 248 246 246 247 247 246 245 244 244 245 246 246 245 244 243 243 243 243
239 233 223 217 220 224 224 226 227 229 235 241 243 239 228 219 220 222 222 224 231 237 236 225 214 202 187 188 196 204 208 212 218 223 230 243 251 256 268 274 273 274 281 290 298 303 307 309 309 306 304 303 301 299 296 293 291 289 288 287 286 283 281 279 276 272 269 267 263 258 254 251 250 250 251 250 249 247 246 246 247 247 246 246 245 244 244
270 252 214 207 246 236 229 231 230 227 230 230 223 216 210 207 208 207 206 207 210 212 208 198 193 189 186 189 197 205 212 216 222 229 235 238 241 251 264 265 262 267 279 289 298 304 306 306 306 306 308 307 303 300 297 294 292 290 289 286 284 282 278 274 272 271 269 268 266 264 262 258 255 253 253 253 252 251 249 248 248 248 249 249 247 246 245
263 264 256 263 283 262 234 233 229 226 228 227 221 217 211 205 201 196 192 191 192 199 208 202 194 193 195 199 205 209 213 220 227 233 236 236 243 254 260 260 261 269 283 294 300 303 303 304 307 312 313 311 307 303 299 297 296 293 291 287 283 279 276 272 270 268 268 267 265 264 263 262 261 259 256 255 254 254 252 250 248 249 250 250 250 249 248
256 264 272 277 290 281 247 235 223 220 226 229 227 224 215 207 204 199 193 192 192 198 211 205 195 195 202 208 214 217 219 222 228 236 242 246 256 264 262 261 266 277 290 298 300 300 301 307 313 316 316 313 309 306 303 301 299 296 293 289 283 279 277 274 270 268 268 268 267 266 264 264 263 262 261 258 256 256 255 254 252 250 249 250 250 250 250
258 256 255 244 243 261 267 231 214 213 219 215 209 213 212 205 203 201 198 197 196 199 207 204 199 201 209 216 223 225 225 229 235 241 247 255 264 267 265 265 272 284 294 297 296 298 303 311 316 316 314 313 311 309 307 305 301 298 295 291 286 282 280 278 275 273 272 272 272 271 270 268 266 265 263 262 260 257 257 257 256 254 252 251 251 251 251
261 256 251 248 252 257 258 239 219 218 217 203 194 201 205 201 202 205 202 200 199 198 201 203 205 210 217 224 225 221 225 234 239 241 246 258 265 266 266 271 280 290 296 294 295 301 308 313 314 311 311 311 311 310 310 307 304 301 296 293 289 286 284 282 281 281 280 280 279 278 277 275 273 271 268 266 264 261 259 258 257 257 256 255 254 254 254
263 258 251 249 254 254 251 255 251 235 218 204 199 202 203 205 210 212 208 207 209 211 211 209 208 208 209 203 198 208 223 233 236 242 250 257 261 262 267 277 287 293 295 297 302 308 311 312 309 307 307 308 308 309 310 308 304 300 297 296 293 289 289 291 292 293 292 290 288 286 284 281 279 277 275 271 268 264 261 258 256 256 257 258 258 258 257
257 260 255 250 249 247 247 251 250 234 215 206 208 214 217 221 221 214 213 222 228 220 205 197 197 198 200 196 189 200 217 226 231 240 247 250 254 261 269 280 290 294 299 305 309 311 311 309 306 305 306 306 307 308 308 305 302 301 300 297 293 294 300 303 303 302 300 298 296 294 292 289 285 282 279 276 272 266 261 258 256 255 256 257 259 260 259
244 249 246 241 236 236 239 241 236 225 214 211 213 217 218 221 217 211 214 222 222 203 182 178 182 190 201 215 213 202 208 215 221 229 235 238 247 257 269 283 294 299 304 307 308 308 308 306 306 307 306 306 306 307 305 303 304 305 300 295 298 306 311 310 308 306 304 303 303 301 299 296 293 288 282 278 272 266 260 256 255 254 254 256 258 260 261
233 233 230 231 234 230 231 234 231 221 213 212 210 203 197 197 197 198 200 203 206 199 186 182 183 184 196 214 225 215 210 211 212 216 222 228 238 253 277 297 304 306 307 305 303 304 305 306 308 308 307 307 307 306 302 300 303 303 296 298 309 314 314 311 309 308 308 308 307 306 305 303 300 294 286 277 270 263 258 255 254 254 254 254 256 258 260
231 231 230 233 231 221 222 230 229 220 211 209 206 198 191 188 190 198 203 205 210 209 196 190 191 189 194 206 216 215 211 208 206 208 212 216 225 255 297 315 317 313 308 303 300 301 303 306 307 307 309 310 308 306 302 296 292 287 285 300 312 314 313 314 315 316 316 315 315 314 313 312 309 304 294 282 272 265 260 256 254 253 253 253 254 255 257
237 237 236 235 230 225 227 230 225 218 212 208 205 202 197 196 208 226 232 231 233 228 209 197 195 194 193 198 204 208 208 206 204 205 206 209 221 281 324 332 329 322 315 308 303 303 306 307 308 309 313 313 310 307 301 287 265 247 256 283 304 313 320 326 327 328 327 325 324 324 322 321 322 320 313 299 285 276 271 266 261 257 254 252 251 251 252
238 240 239 238 236 237 243 244 234 223 213 206 203 204 202 199 210 230 236 235 234 230 216 202 196 195 194 195 202 208 211 209 205 204 205 210 226 309 339 342 339 334 327 317 310 310 311 312 312 312 312 312 310 304 289 265 235 220 234 258 287 317 333 340 339 339 339 337 337 339 340 345 353 355 348 336 319 303 293 285 279 272 266 260 256 254 254
236 236 235 234 234 236 242 247 246 237 224 213 205 205 211 215 216 220 225 225 220 214 207 199 194 194 194 195 202 210 212 210 209 209 214 222 239 302 333 342 343 341 336 327 320 317 316 315 313 309 307 306 302 290 270 245 222 214 223 239 268 322 346 355 357 359 2 3 4 13 27 40 43 35 22 7 355 346 335 319 306 291 278 267 260 258 258
245 242 237 234 232 230 230 237 241 238 235 232 222 214 220 228 226 214 211 211 207 204 200 195 191 190 191 194 202 210 211 212 218 221 224 234 251 289 315 332 342 344 341 335 327 320 317 315 311 302 297 295 288 273 253 233 221 216 219 229 251 324 5 24 37 42 44 44 47 57 65 64 57 47 38 31 26 21 14 359 333 302 282 270 261 255 255
251 251 249 245 240 227 212 216 230 230 231 233 229 222 222 223 216 204 199 199 198 197 196 195 190 187 189 193 200 207 211 217 225 229 234 246 260 280 301 321 340 344 342 337 330 322 316 314 309 298 290 284 276 261 244 228 220 216 218 224 232 310 58 67 68 64 61 60 63 67 67 64 58 48 41 40 41 42 42 40 41 39 18 319 272 250 234
257 256 253 251 248 235 213 198 220 229 225 227 226 222 218 213 205 200 196 196 196 193 189 189 188 186 188 191 192 200 209 217 227 232 238 252 262 272 289 314 334 339 337 334 329 321 315 313 310 298 288 283 275 260 243 227 216 212 214 219 215 161 111 96 80 70 66 62 62 64 65 64 62 58 53 53 58 65 69 70 73 77 79 80 79 77 74
259 258 252 250 251 241 224 226 266 257 217 217 220 216 208 200 198 199 195 193 195 192 183 181 183 184 186 187 188 194 203 210 221 229 236 248 256 261 281 309 322 325 327 328 324 317 312 314 313 301 290 287 279 264 247 225 210 205 209 213 200 166 139 119 88 75 71 64 61 62 63 64 65 66 65 64 65 68 71 72 73 74 74 75 75 75 75
252 254 252 248 247 242 233 241 257 247 170 199 214 208 200 196 197 198 193 187 188 187 182 182 185 184 186 192 197 204 206 201 209 222 233 243 249 258 284 303 309 311 315 320 320 315 311 314 314 302 288 281 270 259 246 221 204 199 203 205 194 173 154 133 97 78 71 65 59 58 59 60 62 64 65 66 66 66 68 70 71 71 72 74 76 78 81
249 250 251 246 246 245 235 228 226 196 90 112 214 205 202 199 193 189 186 182 180 181 184 189 190 189 193 200 203 205 204 202 210 221 231 239 250 268 291 299 298 301 310 316 316 312 311 317 316 297 276 260 248 243 231 212 200 197 198 197 190 180 165 136 100 77 68 62 55 51 51 53 55 57 59 60 61 63 66 68 69 70 71 73 76 78 80
247 247 246 242 244 246 233 217 210 189 111 106 170 174 182 184 177 174 178 179 177 178 185 196 203 205 210 216 219 216 210 206 212 223 232 242 257 274 286 287 286 297 307 311 311 309 311 318 312 283 259 241 226 220 210 201 196 195 195 193 189 185 176 150 110 74 60 54 47 43 44 47 51 57 58 55 54 57 61 64 67 69 71 71 73 74 75
243 244 241 237 239 242 231 217 211 201 181 203 184 162 161 166 172 178 180 179 180 184 193 203 212 220 232 241 242 237 224 214 215 226 235 245 260 271 270 268 282 298 303 305 307 306 309 315 303 262 241 228 212 203 198 194 193 195 196 195 194 193 189 174 144 89 52 42 36 36 40 46 55 64 67 64 59 58 58 60 64 69 70 70 71 70 70
236 239 239 233 233 237 232 222 220 224 237 255 226 174 164 164 172 183 188 190 194 198 201 205 207 215 232 240 237 229 221 216 218 228 238 247 257 260 258 261 279 291 294 299 303 301 303 308 291 247 230 218 203 197 193 191 193 199 201 201 202 202 201 194 183 164 53 30 27 34 51 62 72 80 83 80 75 70 68 67 68 69 69 69 70 71 69
232 236 241 235 231 234 234 229 229 232 237 245 220 180 178 183 194 199 202 204 205 205 207 206 201 198 207 218 222 219 214 215 221 227 235 246 253 252 249 255 270 281 289 295 297 293 294 295 278 243 226 214 203 198 194 189 191 198 204 206 207 208 208 212 217 220 244 316 316 49 100 100 103 103 101 98 93 88 84 81 78 78 75 72 71 74 75
232 234 241 237 231 231 233 234 236 236 234 234 224 202 198 208 215 211 207 209 210 212 214 213 205 197 198 206 216 217 213 214 221 229 236 244 247 245 241 246 258 271 282 285 283 281 282 282 270 244 228 217 208 202 198 191 190 196 203 206 207 209 216 229 244 250 248 255 259 234 176 148 141 132 123 119 115 108 103 99 95 91 87 82 79 79 79
231 233 240 239 232 228 227 229 233 235 233 234 235 231 226 226 224 218 216 217 218 219 223 227 225 216 207 202 202 208 214 218 222 229 235 239 240 238 238 242 249 255 261 265 268 272 275 274 265 246 232 222 214 209 204 197 193 195 200 203 207 212 221 233 247 255 253 251 249 233 212 191 171 156 147 145 141 133 128 125 119 110 105 100 95 90 87
232 233 239 242 239 236 233 231 232 234 233 233 235 235 234 234 233 231 231 232 231 228 227 230 234 236 233 220 205 200 205 214 220 225 230 234 236 236 236 236 237 238 239 245 255 264 268 266 258 246 236 227 221 217 212 207 203 202 203 206 209 214 223 234 245 252 253 254 249 229 215 208 200 187 177 171 167 162 158 156 151 145 136 129 121 113 107
237 240 244 246 246 245 240 233 230 231 232 234 234 233 233 235 237 239 241 243 242 238 230 226 231 244 258 257 234 212 204 206 215 224 230 233 234 236 236 234 232 229 229 240 255 261 258 252 246 242 237 232 227 223 220 218 215 212 212 214 218 221 227 234 237 239 245 251 250 237 221 213 209 206 201 196 191 187 185 184 185 185 178 166 156 147 131
240 247 253 254 253 252 245 233 224 221 224 230 233 231 231 234 237 239 241 243 242 241 241 239 237 239 250 259 250 231 215 209 215 226 234 238 239 241 242 241 236 229 229 241 252 254 249 241 235 235 234 231 228 226 223 223 223 222 221 224 230 233 233 227 218 214 217 226 239 244 234 219 212 210 209 210 210 209 208 209 211 212 210 201 191 186 181
231 241 258 260 255 253 253 242 229 219 216 218 220 218 221 227 230 231 233 235 235 237 242 244 240 235 237 245 246 239 228 220 227 236 242 246 245 243 242 240 236 236 243 247 247 244 242 235 230 230 229 227 226 225 222 220 222 223 223 224 229 230 225 213 199 192 188 186 207 246 245 232 225 220 216 218 220 221 221 224 228 231 231 227 218 213 213
173 185 254 268 256 247 240 232 221 214 212 214 214 211 216 227 233 232 231 230 230 232 236 237 235 232 232 238 246 248 242 230 233 242 248 248 245 241 237 232 231 238 248 247 238 232 232 230 228 228 226 221 220 221 219 215 212 210 210 211 213 213 209 201 191 183 175 165 157 186 228 239 239 232 226 227 229 230 229 229 232 237 241 239 234 227 223
185 222 273 289 274 257 243 232 222 215 216 220 222 222 228 237 242 243 241 237 234 235 239 240 238 234 231 234 243 248 243 234 236 244 250 250 247 242 237 233 233 237 241 238 232 228 225 224 223 223 223 220 218 218 218 212 203 196 194 197 202 205 204 200 195 189 180 171 162 158 187 247 248 238 228 226 230 234 235 232 230 233 236 238 237 233 225
234 258 285 296 291 280 264 251 243 236 233 236 239 242 245 249 251 252 252 250 247 245 246 245 244 242 241 239 242 246 246 243 242 245 247 246 244 239 233 230 227 222 221 228 232 231 227 225 222 217 215 217 218 219 218 213 204 197 194 195 198 201 200 199 200 201 198 199 211 229 242 251 252 249 242 236 236 238 238 235 233 233 229 226 229 229 222
258 271 283 288 288 284 272 260 254 250 246 245 247 249 251 253 256 259 260 260 257 254 250 247 244 244 243 243 245 248 249 246 241 241 241 238 233 228 223 221 220 219 222 229 234 234 233 231 224 216 211 213 215 218 218 215 209 205 202 201 202 202 200 201 208 218 222 224 227 234 240 242 244 248 251 250 250 251 251 249 247 244 234 223 218 218 214
268 274 277 280 279 273 261 253 251 251 250 249 250 252 253 255 257 260 262 262 260 254 249 246 245 244 243 241 241 242 242 240 238 239 240 235 226 218 215 217 222 226 229 232 233 235 236 235 228 219 214 211 212 215 216 215 213 213 212 210 210 211 211 212 216 223 230 232 231 232 235 235 236 241 249 253 254 256 256 255 256 257 251 237 221 210 204
269 271 273 274 273 265 254 249 248 249 250 251 251 252 253 254 256 257 257 257 256 253 249 246 244 242 240 238 237 238 240 240 240 240 239 233 222 213 210 215 223 228 230 232 233 232 231 229 227 223 219 214 212 212 212 213 216 218 219 219 218 217 218 218 218 220 224 227 227 230 235 237 238 243 250 253 253 254 253 251 255 260 259 247 232 219 208
257 257 258 264 267 262 254 248 246 249 251 253 252 252 252 251 252 253 253 253 253 252 250 247 245 242 240 238 237 238 240 240 240 240 237 227 217 212 213 219 222 223 226 231 235 234 231 226 223 222 222 220 217 214 213 214 217 221 223 225 226 225 225 224 223 222 221 221 222 226 233 237 242 248 254 255 255 255 254 252 252 254 253 245 235 230 224
239 238 247 263 269 268 263 256 252 254 255 255 255 255 254 253 252 252 251 251 250 249 247 246 244 243 241 238 236 237 237 236 236 237 234 229 223 222 224 225 225 226 228 232 235 237 236 232 227 224 222 221 222 222 220 219 221 225 228 231 234 236 236 232 228 224 222 221 222 226 230 235 242 248 252 255 256 256 256 256 253 249 245 241 237 237 236
253 250 267 286 285 283 277 269 262 259 258 258 258 258 258 257 256 254 253 252 251 249 246 243 241 240 240 238 235 234 232 230 226 226 226 226 226 229 231 230 230 232 233 234 235 238 237 234 231 228 223 220 221 224 225 226 228 232 235 239 242 243 241 236 231 226 224 224 225 229 235 241 248 252 255 257 258 257 257 257 255 252 248 246 245 245 244
302 294 295 294 294 296 293 287 281 275 269 264 262 260 259 259 259 258 259 259 258 255 252 248 243 240 239 239 236 233 232 230 226 222 221 221 223 228 231 230 229 230 231 232 235 239 239 232 228 228 226 222 220 222 225 228 232 236 242 247 249 246 242 236 233 231 230 231 233 237 242 248 254 259 262 264 264 262 258 256 256 256 255 254 254 253 250
294 298 298 296 300 304 301 295 292 289 286 283 277 269 264 263 263 264 265 265 264 262 259 254 247 243 241 240 239 236 235 234 230 224 222 223 225 227 230 230 229 229 230 230 231 236 237 231 226 226 227 226 224 222 224 228 233 237 243 248 250 247 242 238 237 239 241 243 246 248 250 253 257 261 263 264 265 263 258 254 253 253 254 254 255 255 253
285 294 301 304 304 300 291 285 282 282 284 285 283 277 271 268 268 271 274 273 271 267 261 255 249 244 240 240 240 239 238 237 233 228 225 226 226 227 229 231 232 233 233 233 232 233 232 228 224 224 227 229 228 226 225 228 232 237 243 247 248 244 240 239 240 243 246 247 248 249 250 251 255 258 259 259 260 258 255 252 251 251 250 250 251 251 252
295 300 306 306 299 289 284 282 282 281 279 277 275 273 271 268 268 271 275 277 275 271 263 256 250 245 242 241 241 241 241 240 236 230 227 227 226 224 224 227 231 232 234 234 233 231 228 222 218 219 224 228 230 229 227 228 231 237 242 245 244 241 239 240 241 242 243 243 242 242 243 245 249 254 257 258 258 256 253 252 252 252 251 251 251 250 250
305 306 305 297 289 287 287 287 287 286 284 281 280 279 278 275 273 272 272 271 271 270 265 258 251 247 244 243 242 242 242 241 237 231 229 230 230 227 224 223 225 228 230 232 234 235 233 227 221 221 224 227 229 230 229 229 232 236 239 240 239 238 239 240 240 240 239 237 236 235 237 241 246 252 257 260 259 257 254 254 254 255 254 253 252 251 251
309 310 305 296 288 284 281 278 280 284 285 284 283 282 282 282 282 282 279 275 271 268 265 260 256 252 249 247 244 242 241 239 236 232 230 230 231 231 229 226 225 226 227 230 234 240 244 240 232 229 229 229 228 228 228 230 232 235 235 235 234 235 236 236 237 236 235 233 231 231 234 239 245 251 256 257 257 255 255 255 256 257 257 256 255 254 254
313 309 304 300 297 289 282 277 277 281 284 284 281 278 277 279 283 286 287 284 277 269 264 260 256 254 254 253 250 246 241 237 234 232 231 231 232 233 233 231 230 229 229 229 231 236 239 237 233 231 230 228 226 224 225 228 232 234 233 231 229 228 229 231 232 233 231 228 228 229 233 239 245 250 254 256 257 257 257 258 258 259 259 260 259 258 258
Height
3122 3123 3125 3126 3126 3126 3127 3127 3128 3129 3130 3131 3132 3133 3134 3135 3136 3137 3137 3139 3139 3139 3140 3141 3141 3143 3144 3145 3146 3147 3148 3149 3150 3151 3151 3152 3152 3153 3153 3153 3153 3153 3152 3152 3152 3151 3151 3151 3151 3151 3151 3151 3151 3150 3150 3149 3149 3149 3149 3149 3149 3149 3149 3150 3150 3151 3151 3151 3152 3152 3153 3155 3156 3157 3158 3159 3160 3162 3163 3164 3165 3166 3167 3168 3170 3171 3173
3120 3121 3122 3123 3124 3124 3125 3126 3126 3127 3128 3130 3131 3132 3133 3134 3135 3135 3136 3137 3138 3139 3139 3140 3141 3142 3143 3143 3144 3145 3146 3148 3149 3150 3150 3151 3151 3152 3152 3152 3152 3152 3152 3151 3151 3151 3151 3151 3150 3150 3150 3150 3150 3149 3149 3148 3148 3147 3147 3147 3147 3147 3147 3148 3148 3148 3149 3149 3150 3150 3151 3153 3154 3154 3155 3156 3157 3159 3160 3161 3163 3164 3165 3166 3167 3168 3170
3117 3119 3120 3121 3122 3122 3123 3124 3125 3125 3127 3128 3129 3130 3131 3132 3133 3134 3135 3136 3136 3137 3138 3139 3140 3141 3141 3141 3142 3143 3145 3146 3147 3148 3149 3150 3150 3151 3151 3151 3152 3151 3151 3151 3151 3150 3150 3150 3149 3149 3149 3149 3148 3148 3147 3147 3146 3146 3145 3145 3145 3145 3145 3145 3146 3146 3147 3147 3148 3148 3150 3151 3151 3151 3152 3153 3154 3156 3157 3158 3159 3160 3161 3163 3164 3165 3166
3115 3116 3118 3118 3120 3121 3121 3122 3123 3123 3124 3125 3126 3127 3129 3130 3131 3132 3133 3133 3135 3136 3136 3137 3138 3139 3140 3140 3141 3142 3143 3144 3146 3147 3148 3149 3149 3150 3150 3151 3151 3150 3150 3150 3150 3150 3149 3149 3148 3148 3147 3147 3147 3146 3146 3145 3145 3144 3144 3143 3143 3142 3142 3142 3143 3144 3144 3145 3145 3146 3147 3148 3148 3148 3149 3150 3151 3153 3154 3155 3156 3157 3158 3159 3160 3162 3163
3114 3115 3116 3116 3118 3118 3118 3119 3121 3121 3122 3123 3124 3125 3126 3127 3129 3130 3130 3132 3133 3134 3135 3136 3136 3137 3138 3139 3140 3141 3142 3143 3145 3146 3147 3148 3148 3149 3149 3149 3149 3149 3149 3149 3149 3149 3148 3147 3147 3146 3146 3145 3145 3145 3144 3144 3143 3143 3142 3142 3141 3140 3140 3140 3140 3141 3141 3142 3143 3143 3144 3145 3145 3146 3147 3148 3149 3150 3151 3152 3153 3154 3155 3156 3157 3158 3159
3113 3113 3114 3115 3116 3115 3115 3117 3119 3120 3120 3121 3122 3123 3124 3126 3126 3127 3129 3130 3131 3132 3133 3134 3135 3136 3137 3138 3139 3141 3142 3143 3144 3145 3146 3146 3147 3148 3148 3148 3148 3148 3148 3148 3148 3147 3146 3146 3145 3144 3144 3143 3143 3143 3142 3142 3142 3141 3141 3140 3140 3139 3138 3138 3137 3138 3138 3139 3140 3141 3142 3142 3142 3143 3144 3145 3146 3147 3147 3148 3149 3150 3151 3153 3154 3155 3156
3111 3112 3113 3114 3113 3112 3114 3116 3117 3118 3119 3120 3121 3121 3122 3123 3124 3126 3127 3128 3129 3130 3131 3132 3134 3135 3136 3137 3138 3139 3141 3142 3143 3143 3144 3145 3146 3146 3147 3147 3147 3147 3147 3147 3146 3145 3144 3144 3143 3143 3142 3141 3141 3140 3140 3140 3139 3139 3139 3139 3138 3137 3137 3136 3136 3136 3136 3136 3137 3138 3138 3139 3140 3140 3141 3142 3143 3144 3144 3145 3145 3146 3147 3149 3150 3151 3152
3110 3110 3111 3111 3110 3111 3112 3114 3115 3116 3117 3118 3119 3120 3120 3121 3123 3124 3125 3126 3128 3129 3130 3131 3132 3134 3135 3136 3137 3138 3139 3140 3141 3142 3143 3144 3144 3145 3146 3146 3146 3146 3146 3145 3144 3143 3142 3142 3141 3141 3140 3140 3139 3138 3138 3137 3137 3137 3136 3136 3136 3135 3135 3134 3134 3134 3134 3134 3134 3135 3135 3136 3136 3137 3138 3138 3139 3140 3141 3141 3142 3143 3144 3145 3146 3147 3149
3110 3110 3109 3109 3109 3110 3110 3112 3113 3114 3115 3116 3117 3118 3119 3120 3121 3122 3124 3125 3126 3127 3128 3129 3130 3132 3133 3134 3135 3136 3137 3138 3139 3140 3141 3142 3143 3143 3144 3144 3145 3145 3144 3143 3142 3141 3141 3140 3139 3139 3138 3137 3137 3136 3135 3134 3134 3134 3134 3133 3133 3133 3133 3132 3132 3132 3131 3131 3132 3132 3132 3133 3133 3134 3134 3135 3135 3136 3136 3137 3139 3139 3140 3141 3142 3143 3144
3109 3109 3109 3109 3110 3110 3110 3111 3112 3113 3113 3114 3116 3116 3117 3118 3120 3121 3122 3123 3124 3125 3126 3127 3129 3130 3131 3132 3133 3134 3136 3137 3138 3139 3139 3140 3141 3142 3142 3143 3143 3143 3142 3141 3140 3139 3139 3138 3138 3137 3137 3136 3135 3134 3133 3132 3132 3131 3131 3131 3130 3130 3130 3130 3130 3130 3129 3129 3129 3129 3130 3130 3130 3131 3131 3132 3132 3132 3132 3133 3135 3136 3137 3137 3138 3139 3140
3108 3108 3108 3108 3109 3109 3109 3110 3111 3111 3112 3113 3114 3114 3115 3116 3118 3120 3121 3122 3123 3124 3125 3126 3127 3128 3129 3130 3132 3133 3134 3135 3136 3137 3138 3139 3140 3140 3141 3141 3141 3141 3140 3139 3138 3138 3137 3137 3136 3136 3135 3134 3133 3132 3131 3131 3130 3129 3129 3128 3128 3128 3128 3128 3128 3128 3127 3127 3127 3127 3127 3127 3127 3127 3128 3129 3129 3129 3129 3130 3131 3132 3133 3133 3134 3135 3136
3106 3107 3106 3106 3107 3108 3109 3109 3110 3110 3111 3111 3112 3112 3112 3114 3117 3118 3119 3120 3121 3122 3123 3125 3126 3127 3128 3129 3131 3132 3133 3134 3135 3136 3137 3138 3138 3139 3139 3139 3139 3138 3138 3137 3137 3136 3136 3135 3135 3134 3133 3132 3131 3130 3130 3129 3128 3128 3127 3127 3127 3126 3126 3126 3126 3126 3126 3126 3125 3124 3124 3124 3124 3124 3124 3125 3125 3126 3126 3127 3127 3128 3128 3129 3130 3131 3133
3104 3104 3104 3104 3105 3106 3107 3107 3108 3108 3109 3110 3110 3110 3111 3113 3115 3116 3117 3119 3120 3121 3122 3123 3124 3126 3127 3129 3129 3130 3131 3133 3134 3135 3136 3136 3137 3137 3137 3137 3137 3137 3136 3136 3135 3134 3134 3133 3133 3132 3131 3130 3129 3129 3128 3128 3127 3126 3126 3126 3126 3125 3125 3125 3125 3124 3124 3123 3123 3122 3121 3121 3120 3120 3120 3120 3121 3122 3122 3123 3124 3124 3125 3125 3127 3128 3129
3102 3102 3102 3102 3102 3103 3104 3105 3106 3107 3108 3108 3109 3110 3112 3113 3114 3115 3116 3117 3118 3119 3120 3122 3123 3125 3126 3127 3128 3129 3130 3131 3133 3134 3134 3135 3135 3136 3136 3136 3135 3135 3134 3134 3133 3133 3132 3132 3131 3130 3129 3129 3128 3127 3127 3126 3126 3125 3125 3125 3125 3125 3124 3124 3123 3123 3122 3121 3120 3120 3119 3118 3117 3117 3116 3116 3117 3117 3118 3119 3120 3121 3121 3122 3123 3124 3125
3099 3100 3100 3099 3099 3100 3102 3103 3104 3105 3106 3107 3108 3110 3111 3111 3112 3113 3114 3115 3115 3116 3118 3120 3122 3124 3125 3126 3126 3127 3129 3130 3131 3132 3133 3133 3134 3134 3134 3134 3134 3133 3133 3132 3132 3132 3131 3130 3129 3128 3128 3127 3126 3126 3125 3125 3125 3124 3124 3124 3124 3124 3124 3123 3122 3121 3120 3119 3118 3117 3116 3115 3115 3114 3113 3113 3113 3113 3114 3115 3116 3117 3118 3119 3120 3120 3121
3095 3095 3095 3096 3097 3099 3100 3100 3101 3103 3104 3105 3106 3107 3108 3109 3111 3112 3112 3113 3114 3114 3116 3118 3120 3122 3123 3124 3125 3126 3127 3128 3129 3130 3131 3132 3132 3132 3132 3132 3132 3132 3132 3131 3131 3130 3129 3129 3128 3127 3126 3125 3125 3124 3124 3124 3124 3124 3124 3124 3124 3124 3123 3123 3122 3121 3119 3118 3117 3116 3114 3113 3112 3111 3111 3110 3110 3110 3110 3111 3112 3113 3114 3115 3116 3117 3118
3090 3090 3092 3094 3095 3097 3097 3097 3098 3100 3101 3102 3103 3105 3106 3107 3109 3110 3111 3111 3112 3112 3114 3116 3118 3119 3121 3123 3124 3125 3126 3127 3128 3129 3130 3130 3131 3131 3131 3131 3131 3131 3130 3130 3129 3129 3128 3127 3126 3125 3125 3124 3123 3123 3123 3123 3123 3123 3123 3123 3123 3123 3123 3122 3121 3120 3119 3117 3116 3114 3113 3112 3110 3110 3109 3108 3108 3107 3108 3108 3109 3110 3111 3112 3113 3114 3114
3087 3088 3090 3092 3093 3093 3094 3094 3095 3096 3097 3099 3101 3102 3103 3105 3107 3109 3110 3110 3110 3111 3112 3114 3116 3117 3119 3121 3122 3123 3124 3125 3126 3128 3129 3129 3129 3129 3130 3130 3130 3130 3129 3129 3128 3127 3127 3126 3125 3124 3123 3122 3122 3122 3122 3122 3122 3123 3123 3123 3123 3123 3123 3122 3120 3119 3118 3116 3115 3113 3112 3111 3109 3108 3107 3107 3106 3106 3106 3106 3107 3107 3108 3109 3110 3110 3111
3085 3085 3087 3088 3090 3091 3091 3091 3091 3092 3093 3095 3097 3099 3101 3102 3104 3106 3108 3108 3109 3109 3110 3112 3114 3115 3117 3119 3120 3121 3123 3124 3125 3126 3127 3128 3128 3128 3129 3129 3129 3129 3128 3128 3127 3126 3125 3124 3123 3122 3122 3121 3121 3121 3121 3121 3122 3122 3123 3123 3123 3123 3122 3121 3120 3119 3117 3116 3115 3113 3112 3110 3109 3108 3107 3106 3105 3105 3105 3105 3105 3106 3106 3107 3107 3108 3108
3082 3083 3084 3086 3087 3089 3089 3088 3088 3089 3090 3092 3093 3096 3098 3099 3101 3103 3105 3106 3107 3107 3108 3110 3112 3114 3115 3117 3118 3120 3121 3122 3124 3125 3126 3126 3127 3127 3127 3128 3127 3127 3127 3126 3125 3124 3124 3123 3122 3121 3121 3120 3120 3120 3120 3120 3121 3121 3122 3123 3123 3123 3123 3122 3120 3119 3117 3116 3115 3113 3112 3111 3109 3108 3107 3106 3105 3105 3104 3104 3104 3105 3105 3105 3106 3106 3106
3080 3081 3082 3083 3084 3085 3085 3085 3084 3086 3087 3088 3090 3092 3094 3096 3099 3101 3102 3104 3105 3106 3107 3108 3110 3112 3113 3115 3116 3118 3120 3121 3122 3123 3124 3125 3125 3126 3126 3126 3126 3125 3125 3124 3124 3123 3122 3122 3121 3120 3120 3119 3119 3119 3119 3119 3120 3121 3122 3122 3123 3123 3123 3122 3121 3120 3118 3117 3115 3114 3113 3111 3110 3109 3108 3107 3106 3105 3105 3104 3104 3105 3105 3105 3105 3105 3105
3078 3079 3080 3080 3082 3082 3082 3082 3082 3083 3083 3084 3085 3088 3090 3093 3096 3098 3099 3101 3103 3105 3106 3108 3109 3110 3112 3113 3114 3116 3118 3119 3120 3121 3122 3123 3124 3124 3124 3124 3124 3124 3123 3123 3122 3122 3121 3120 3120 3120 3119 3118 3118 3118 3118 3118 3119 3120 3121 3122 3123 3123 3123 3123 3122 3121 3119 3118 3117 3115 3113 3112 3111 3111 3110 3108 3107 3106 3106 3105 3105 3105 3105 3105 3105 3105 3105
3076 3077 3077 3078 3079 3079 3080 3079 3079 3079 3079 3078 3079 3083 3086 3089 3092 3094 3096 3099 3100 3102 3104 3106 3108 3109 3110 3111 3113 3114 3116 3117 3118 3120 3121 3121 3122 3122 3122 3122 3122 3122 3122 3121 3121 3120 3120 3119 3119 3119 3118 3117 3117 3117 3117 3118 3119 3119 3120 3121 3122 3123 3123 3123 3122 3122 3121 3120 3118 3117 3115 3114 3114 3113 3112 3111 3110 3109 3108 3107 3107 3106 3106 3106 3106 3106 3105
3074 3075 3075 3075 3075 3077 3078 3078 3077 3077 3076 3074 3075 3078 3081 3085 3089 3091 3093 3096 3099 3100 3101 3103 3105 3107 3109 3110 3111 3112 3114 3115 3116 3118 3119 3119 3120 3120 3120 3120 3120 3120 3120 3120 3119 3119 3118 3118 3118 3117 3117 3116 3116 3116 3116 3117 3118 3119 3120 3121 3122 3122 3122 3123 3122 3122 3121 3121 3120 3119 3118 3117 3116 3116 3115 3115 3114 3112 3111 3110 3110 3109 3108 3108 3107 3107 3107
3072 3072 3073 3073 3073 3074 3076 3077 3076 3075 3074 3072 3072 3074 3077 3081 3084 3088 3091 3094 3097 3100 3101 3102 3103 3105 3106 3107 3109 3110 3111 3112 3114 3115 3116 3117 3117 3118 3118 3118 3119 3119 3119 3118 3118 3117 3117 3117 3116 3116 3116 3115 3115 3115 3115 3116 3117 3118 3119 3120 3121 3121 3122 3122 3122 3122 3121 3121 3121 3120 3120 3119 3119 3118 3118 3117 3117 3116 3114 3114 3113 3112 3112 3111 3111 3111 3111
3070 3071 3071 3071 3071 3072 3073 3075 3075 3074 3073 3071 3071 3072 3075 3077 3080 3085 3089 3093 3097 3099 3101 3102 3103 3103 3104 3105 3106 3107 3108 3110 3111 3112 3113 3114 3115 3116 3116 3116 3117 3117 3117 3117 3116 3116 3116 3115 3115 3115 3115 3115 3114 3114 3114 3115 3116 3117 3118 3119 3120 3121 3121 3122 3122 3122 3122 3121 3121 3121 3121 3121 3120 3120 3119 3119 3119 3118 3117 3117 3116 3116 3116 3115 3115 3115 3115
3069 3069 3069 3069 3069 3070 3071 3073 3073 3072 3071 3071 3072 3072 3074 3077 3080 3084 3088 3091 3094 3097 3100 3101 3102 3102 3102 3103 3104 3104 3105 3107 3108 3109 3111 3112 3113 3113 3114 3114 3115 3115 3115 3115 3115 3114 3114 3114 3114 3114 3114 3114 3114 3114 3114 3115 3116 3117 3118 3119 3120 3120 3121 3121 3121 3121 3121 3121 3121 3122 3122 3121 3121 3120 3120 3120 3120 3120 3119 3119 3119 3119 3118 3118 3118 3118 3118
3067 3067 3067 3067 3068 3068 3069 3071 3071 3070 3070 3073 3074 3074 3075 3079 3082 3084 3085 3088 3091 3093 3096 3099 3101 3102 3101 3101 3101 3102 3103 3104 3105 3106 3108 3109 3110 3111 3112 3112 3113 3113 3113 3113 3113 3113 3113 3113 3113 3113 3113 3113 3113 3113 3114 3114 3115 3116 3117 3118 3119 3120 3120 3121 3121 3121 3121 3121 3122 3122 3122 3122 3121 3121 3121 3121 3121 3121 3121 3120 3120 3120 3120 3120 3120 3120 3119
3065 3065 3065 3066 3067 3067 3068 3070 3071 3070 3071 3073 3075 3075 3076 3078 3080 3083 3085 3088 3090 3092 3094 3096 3099 3100 3101 3101 3100 3100 3100 3101 3102 3103 3105 3106 3107 3109 3110 3110 3111 3111 3112 3111 3111 3111 3111 3112 3112 3112 3112 3112 3112 3113 3113 3114 3115 3116 3117 3117 3118 3119 3119 3120 3120 3121 3121 3121 3122 3122 3122 3122 3122 3122 3122 3122 3122 3122 3122 3122 3121 3121 3121 3121 3121 3121 3121
3063 3064 3064 3065 3066 3067 3068 3069 3070 3071 3071 3072 3073 3073 3074 3075 3077 3081 3085 3088 3090 3092 3094 3096 3097 3098 3099 3100 3100 3100 3099 3099 3099 3100 3102 3104 3105 3106 3108 3108 3109 3110 3110 3110 3110 3110 3110 3111 3111 3111 3111 3112 3112 3112 3113 3114 3114 3115 3116 3117 3117 3118 3119 3119 3120 3120 3121 3121 3122 3122 3122 3122 3122 3122 3122 3122 3122 3122 3122 3122 3122 3122 3122 3122 3122 3122 3122
3062 3062 3063 3064 3065 3066 3067 3068 3069 3071 3072 3072 3073 3073 3074 3075 3077 3080 3083 3085 3088 3091 3093 3095 3096 3096 3096 3097 3099 3099 3097 3096 3097 3098 3100 3101 3103 3104 3105 3106 3107 3108 3108 3109 3109 3109 3109 3110 3110 3110 3110 3111 3111 3112 3112 3113 3113 3114 3115 3116 3117 3117 3118 3119 3119 3120 3120 3121 3121 3122 3122 3122 3122 3122 3122 3122 3123 3123 3123 3123 3123 3123 3123 3123 3123 3123 3123
3060 3061 3061 3063 3064 3065 3066 3067 3068 3069 3071 3073 3074 3075 3076 3077 3079 3081 3083 3084 3086 3089 3091 3094 3096 3095 3092 3090 3092 3095 3096 3094 3094 3095 3097 3099 3101 3102 3103 3104 3105 3106 3107 3107 3107 3108 3108 3108 3109 3109 3109 3109 3110 3110 3111 3112 3112 3113 3114 3115 3116 3116 3117 3118 3119 3119 3120 3120 3121 3121 3121 3122 3122 3122 3122 3122 3123 3123 3123 3123 3123 3123 3124 3124 3124 3124 3124
3058 3059 3060 3061 3062 3063 3064 3065 3066 3067 3069 3070 3072 3073 3075 3076 3078 3080 3082 3083 3084 3086 3088 3090 3093 3094 3092 3088 3087 3089 3091 3091 3091 3092 3094 3096 3099 3100 3101 3102 3103 3104 3104 3105 3106 3106 3107 3107 3107 3108 3108 3108 3108 3109 3110 3111 3111 3112 3113 3114 3115 3116 3116 3117 3118 3118 3119 3119 3120 3120 3121 3121 3121 3122 3122 3122 3122 3123 3123 3123 3123 3124 3124 3124 3124 3124 3124
3057 3058 3059 3060 3061 3062 3063 3064 3065 3066 3066 3067 3069 3070 3072 3074 3076 3078 3080 3082 3082 3083 3084 3086 3089 3093 3094 3091 3089 3088 3087 3087 3088 3090 3092 3094 3096 3097 3098 3100 3101 3102 3102 3103 3104 3105 3105 3106 3106 3106 3107 3107 3107 3108 3108 3109 3110 3111 3112 3113 3114 3115 3116 3116 3117 3117 3118 3118 3119 3119 3120 3120 3121 3121 3122 3122 3122 3123 3123 3123 3123 3123 3124 3124 3124 3124 3124
3057 3057 3058 3059 3060 3061 3062 3063 3064 3064 3065 3066 3067 3068 3070 3072 3074 3076 3078 3079 3080 3081 3081 3083 3086 3089 3090 3090 3089 3088 3085 3085 3087 3089 3091 3092 3094 3096 3097 3098 3099 3100 3101 3101 3102 3103 3104 3104 3105 3105 3106 3106 3106 3106 3107 3108 3109 3110 3111 3112 3113 3114 3115 3115 3116 3116 3117 3117 3118 3118 3119 3119 3120 3121 3121 3121 3122 3122 3122 3123 3123 3123 3123 3123 3124 3124 3124
3057 3057 3057 3058 3059 3060 3061 3062 3063 3064 3065 3065 3066 3067 3069 3070 3072 3074 3075 3077 3078 3079 3079 3080 3083 3085 3085 3086 3086 3084 3082 3084 3086 3088 3089 3091 3092 3093 3095 3097 3098 3099 3099 3099 3100 3101 3102 3103 3103 3104 3104 3105 3105 3105 3106 3107 3108 3109 3110 3111 3112 3113 3114 3115 3115 3115 3116 3116 3117 3117 3118 3118 3119 3119 3120 3120 3121 3121 3122 3122 3122 3122 3123 3123 3123 3123 3123
3056 3057 3057 3058 3058 3059 3060 3061 3062 3063 3063 3063 3064 3065 3068 3069 3070 3072 3073 3075 3076 3077 3078 3079 3080 3081 3082 3082 3081 3080 3081 3083 3085 3086 3087 3089 3090 3091 3092 3094 3095 3097 3098 3098 3098 3099 3100 3101 3101 3102 3103 3103 3104 3104 3105 3106 3107 3108 3109 3110 3111 3112 3113 3114 3114 3114 3115 3115 3116 3116 3116 3117 3117 3118 3119 3119 3120 3120 3120 3121 3121 3121 3122 3122 3122 3123 3123
3056 3057 3057 3058 3058 3059 3059 3060 3061 3061 3062 3062 3062 3063 3065 3067 3069 3070 3071 3073 3074 3074 3075 3076 3077 3078 3079 3079 3079 3079 3080 3082 3083 3084 3085 3087 3088 3088 3090 3092 3093 3095 3097 3097 3097 3097 3098 3099 3100 3101 3101 3102 3103 3103 3104 3105 3106 3107 3108 3109 3110 3111 3112 3113 3113 3113 3114 3114 3115 3115 3116 3116 3117 3117 3118 3118 3119 3119 3119 3120 3120 3121 3121 3121 3121 3122 3122
3056 3057 3057 3057 3057 3058 3058 3058 3059 3059 3060 3061 3062 3063 3064 3066 3067 3068 3069 3070 3071 3072 3072 3073 3074 3075 3076 3076 3077 3078 3079 3080 3081 3082 3083 3084 3085 3086 3088 3090 3092 3093 3094 3094 3095 3096 3097 3098 3099 3099 3100 3100 3101 3102 3103 3105 3106 3106 3107 3108 3109 3110 3111 3111 3112 3113 3113 3114 3114 3115 3115 3116 3116 3117 3117 3117 3118 3118 3119 3119 3119 3120 3120 3121 3121 3121 3121
3055 3056 3056 3056 3056 3056 3056 3057 3057 3057 3058 3058 3059 3061 3062 3063 3064 3065 3066 3067 3068 3069 3069 3070 3071 3072 3073 3073 3074 3075 3076 3077 3079 3079 3079 3080 3082 3084 3086 3088 3089 3090 3091 3092 3093 3095 3095 3096 3097 3098 3098 3099 3100 3101 3102 3103 3104 3105 3106 3107 3108 3109 3110 3111 3111 3112 3113 3113 3114 3114 3115 3115 3116 3116 3116 3116 3117 3117 3118 3118 3118 3119 3119 3120 3120 3120 3121
3054 3054 3055 3055 3055 3055 3055 3055 3055 3055 3056 3056 3057 3058 3060 3061 3062 3063 3063 3064 3065 3065 3066 3067 3068 3069 3070 3071 3072 3073 3074 3075 3076 3076 3077 3078 3080 3082 3084 3086 3088 3089 3090 3090 3091 3092 3093 3094 3095 3096 3097 3098 3098 3099 3101 3102 3103 3104 3105 3106 3107 3108 3109 3110 3111 3111 3112 3113 3113 3114 3114 3114 3115 3115 3116 3116 3116 3117 3117 3117 3117 3117 3118 3119 3120 3120 3120
3053 3053 3053 3053 3053 3053 3053 3053 3053 3054 3054 3054 3055 3056 3057 3058 3059 3060 3061 3061 3062 3062 3063 3064 3065 3066 3067 3068 3069 3070 3071 3073 3074 3075 3076 3077 3079 3081 3083 3085 3086 3087 3088 3088 3088 3089 3091 3092 3093 3094 3095 3096 3097 3098 3099 3100 3101 3102 3103 3104 3106 3107 3108 3109 3109 3110 3111 3112 3112 3113 3113 3113 3114 3114 3115 3115 3116 3116 3116 3117 3117 3117 3117 3118 3118 3119 3119
3052 3051 3051 3051 3051 3051 3052 3052 3052 3052 3053 3053 3054 3054 3055 3056 3057 3058 3059 3059 3060 3060 3061 3062 3063 3064 3065 3066 3067 3068 3069 3071 3072 3073 3075 3076 3078 3079 3081 3082 3083 3084 3084 3085 3086 3088 3089 3090 3091 3092 3093 3094 3095 3096 3097 3098 3099 3100 3101 3102 3104 3105 3106 3107 3108 3109 3110 3111 3111 3112 3112 3112 3113 3113 3114 3114 3115 3115 3115 3116 3116 3116 3116 3116 3117 3117 3118
3051 3051 3051 3051 3051 3051 3051 3051 3051 3052 3052 3052 3052 3053 3054 3054 3055 3056 3057 3057 3058 3058 3059 3060 3060 3061 3062 3063 3064 3066 3067 3068 3070 3071 3073 3074 3076 3077 3079 3080 3081 3081 3082 3083 3084 3086 3087 3089 3089 3090 3091 3092 3093 3094 3095 3096 3098 3098 3099 3100 3101 3102 3103 3105 3106 3107 3108 3109 3110 3110 3110 3111 3112 3112 3112 3113 3113 3114 3114 3114 3115 3115 3115 3115 3116 3116 3116
3050 3050 3050 3051 3051 3051 3051 3051 3051 3051 3051 3051 3051 3052 3052 3053 3053 3054 3055 3055 3056 3056 3057 3057 3058 3058 3059 3060 3062 3063 3064 3065 3067 3068 3070 3072 3074 3076 3077 3078 3079 3079 3080 3081 3082 3084 3085 3087 3088 3088 3089 3089 3090 3092 3093 3094 3095 3096 3097 3098 3099 3100 3101 3102 3103 3104 3106 3106 3107 3108 3109 3109 3110 3110 3111 3111 3111 3112 3112 3112 3113 3113 3113 3114 3114 3114 3115
3050 3050 3050 3050 3050 3050 3051 3051 3051 3051 3050 3050 3050 3051 3051 3051 3052 3052 3053 3053 3054 3054 3054 3055 3055 3055 3056 3057 3059 3060 3061 3062 3064 3065 3067 3069 3071 3072 3074 3075 3076 3077 3078 3079 3080 3081 3083 3084 3085 3086 3086 3087 3088 3089 3091 3092 3093 3094 3095 3096 3097 3098 3099 3100 3101 3102 3103 3104 3105 3106 3106 3107 3107 3108 3108 3108 3109 3109 3110 3110 3110 3111 3111 3111 3112 3112 3113
3049 3049 3049 3050 3050 3050 3050 3050 3050 3050 3049 3049 3049 3050 3050 3050 3050 3051 3051 3051 3051 3052 3052 3052 3053 3053 3054 3055 3056 3057 3059 3060 3061 3063 3064 3066 3067 3069 3070 3071 3072 3073 3074 3076 3077 3079 3080 3080 3081 3083 3084 3085 3086 3087 3088 3089 3091 3092 3093 3094 3095 3096 3097 3098 3099 3100 3100 3101 3102 3103 3104 3104 3105 3105 3105 3106 3106 3107 3107 3108 3108 3108 3109 3109 3109 3110 3110
3049 3049 3049 3050 3050 3049 3049 3049 3049 3048 3048 3048 3048 3048 3049 3049 3049 3049 3050 3050 3050 3050 3050 3050 3051 3051 3052 3053 3054 3055 3056 3057 3059 3061 3062 3063 3064 3065 3067 3068 3069 3070 3071 3073 3074 3075 3076 3077 3078 3080 3081 3082 3083 3085 3086 3087 3088 3089 3090 3092 3093 3094 3095 3096 3097 3097 3098 3099 3100 3100 3101 3102 3102 3102 3102 3103 3103 3104 3104 3105 3105 3106 3106 3107 3107 3107 3108
3048 3049 3049 3049 3049 3049 3048 3048 3048 3048 3048 3048 3048 3048 3047 3048 3048 3048 3048 3048 3048 3048 3048 3048 3048 3049 3050 3050 3051 3052 3053 3054 3056 3058 3059 3059 3061 3062 3063 3065 3066 3067 3069 3070 3070 3070 3070 3071 3074 3076 3078 3080 3081 3082 3084 3085 3086 3087 3088 3090 3091 3092 3093 3094 3094 3095 3096 3097 3097 3098 3098 3099 3099 3099 3099 3100 3100 3101 3101 3102 3102 3103 3104 3104 3105 3105 3105
3048 3048 3048 3048 3048 3048 3047 3047 3047 3047 3047 3047 3047 3047 3046 3046 3046 3046 3047 3047 3047 3046 3046 3046 3046 3047 3047 3048 3049 3050 3050 3051 3053 3054 3056 3057 3058 3059 3060 3061 3063 3064 3066 3067 3067 3066 3067 3069 3072 3074 3075 3077 3079 3080 3082 3083 3084 3085 3087 3088 3089 3090 3091 3092 3092 3093 3093 3094 3095 3095 3096 3096 3096 3096 3096 3097 3097 3098 3098 3099 3099 3100 3101 3101 3102 3102 3103
3047 3047 3047 3047 3047 3046 3046 3046 3045 3045 3045 3045 3045 3045 3045 3045 3045 3045 3045 3045 3045 3045 3044 3044 3044 3044 3045 3045 3046 3047 3048 3049 3050 3051 3052 3054 3055 3056 3057 3058 3060 3061 3063 3064 3065 3066 3067 3069 3070 3072 3073 3075 3077 3078 3079 3081 3082 3084 3085 3086 3087 3088 3089 3090 3090 3090 3091 3091 3092 3093 3093 3093 3094 3094 3094 3094 3095 3095 3096 3096 3097 3097 3098 3098 3099 3099 3100
3046 3046 3046 3046 3046 3045 3044 3044 3044 3044 3044 3043 3043 3043 3043 3043 3043 3043 3043 3043 3043 3043 3043 3042 3042 3043 3043 3043 3044 3045 3045 3046 3047 3048 3049 3050 3052 3053 3055 3056 3057 3059 3060 3062 3063 3064 3065 3067 3068 3070 3071 3073 3074 3075 3077 3079 3080 3082 3083 3085 3086 3087 3087 3087 3087 3088 3088 3089 3090 3090 3091 3091 3091 3092 3092 3092 3093 3093 3094 3094 3094 3095 3095 3095 3096 3096 3096